This is the latest recevied weather packets stored in our database for station/object DL1SEW-6. If no packets are shown the sender has not sent any weather packets the latest 10 day(s).
| Time | Temp. | Humidity | Pressure | Rain* | Wind** | Luminosity | Snow |
|---|---|---|---|---|---|---|---|
| 1777592398 | 9.44° C | 31% | 1023.8 hPa | 0 mm | - | 0 W/m² | - |
| 1777591498 | 9.44° C | 32% | 1023.8 hPa | 0 mm | - | 0 W/m² | - |
| 1777590598 | 9.44° C | 31% | 1023.8 hPa | 0 mm | - | 0 W/m² | - |
| 1777589702 | 9.44° C | 31% | 1023.7 hPa | 0 mm | - | 0 W/m² | - |
| 1777588802 | 9.44° C | 32% | 1023.7 hPa | 0 mm | - | 0 W/m² | - |
| 1777587902 | 10° C | 33% | 1023.8 hPa | 0 mm | - | 0 W/m² | - |
| 1777587002 | 10° C | 32% | 1024 hPa | 0 mm | - | 0 W/m² | - |
| 1777586102 | 10° C | 33% | 1024.6 hPa | 0 mm | - | 0 W/m² | - |
| 1777585203 | 9.44° C | 35% | 1024.4 hPa | 0 mm | - | 0 W/m² | - |
| 1777584301 | 9.44° C | 34% | 1024.2 hPa | 0 mm | - | 0 W/m² | - |
| 1777583401 | 9.44° C | 34% | 1024.2 hPa | 0 mm | - | 0 W/m² | - |
| 1777582501 | 10° C | 35% | 1024.2 hPa | 0 mm | - | 0 W/m² | - |
| 1777581601 | 10.56° C | 33% | 1024.4 hPa | 0 mm | - | 0 W/m² | - |
| 1777580703 | 10° C | 33% | 1024.2 hPa | 0 mm | - | 0 W/m² | - |
| 1777579801 | 10.56° C | 33% | 1024.1 hPa | 0 mm | - | 0 W/m² | - |
| 1777578900 | 11.11° C | 33% | 1024 hPa | 0 mm | - | 0 W/m² | - |
| 1777578000 | 11.67° C | 31% | 1024 hPa | 0 mm | - | 0 W/m² | - |
| 1777577100 | 11.67° C | 30% | 1023.9 hPa | 0 mm | - | 0 W/m² | - |
| 1777576202 | 12.22° C | 29% | 1023.8 hPa | 0 mm | - | 0 W/m² | - |
| 1777575300 | 12.22° C | 29% | 1023.4 hPa | 0 mm | - | 0 W/m² | - |
| 1777574399 | 12.78° C | 29% | 1023.2 hPa | 0 mm | - | 5 W/m² | - |
| 1777573499 | 13.33° C | 27% | 1023.1 hPa | 0 mm | - | 11 W/m² | - |
| 1777572600 | 13.89° C | 26% | 1022.9 hPa | 0 mm | - | 16 W/m² | - |
| 1777571699 | 13.89° C | 25% | 1022.9 hPa | 0 mm | - | 21 W/m² | - |
| 1777570801 | 14.44° C | 24% | 1022.8 hPa | 0 mm | - | 26 W/m² | - |
* Rain latest hour (hover to see other rain measurements)
** Current wind speed in m/s (hover to see current wind gust speed)